Location: Cz?stochówka
(50.8142°N, 19.0915°E)
Time: 09:23:39
(UTC+00:00)

Cosmos 2074 Rocket - Pass Details

Date: 13 January 2026
Orbit: 965 x 986 km, 82.9° (Epoch: 17 February)

Event Time Altitude Azimuth Distance (km) Brightness Sun altitude
Rises 04:52:41 0° 195° (SSW) 3,682 7.0 -16.4°
Reaches altitude 10° 04:55:12 10° 197° (SSW) 2,739 6.3 -16.0°
Maximum altitude 05:01:29 72° 282° (WNW) 1,039 3.9 -15.1°
Drops below altitude 10° 05:07:48 10° 7° (N) 2,753 6.3 -14.1°
Sets 05:10:21 0° 9° (N) 3,704 7.0 -13.7°
